Home > Weather > Patna > Past weeks

Flag for India Weather for the Past 2 Weeks in Patna, Bihar, India

Now
91 °F

Haze.


Feels Like: 91 °F
Forecast: 81 / 102 °F
Wind: 2 mph from Northeast

Location: Patna Airport

Current Time: May 1, 2016 at 9:49:28 AM

Latest Report: May 1, 2016 at 8:30 AM


Visibility: 2 mi

Pressure: 29.65 "Hg

Humidity: 34%

Dew Point: 59 °F

Location of PatnaLocation

Historic Weather in Patna — Graph

°F

Patna Temperature Yesterday

Maximum temperature yesterday: 111 °F (at 2:00 PM)
Minimum temperature yesterday: 79 °F (at 5:30 AM)
Average temperature yesterday: 100 °F

High & Low Weather Summary for the Past Weeks

 TemperatureHumidityPressure
High111 °F (Apr 26, 2:30 PM)84% (Apr 17, 5:30 AM)29.77 "Hg (Apr 17, 5:30 AM)
Low73 °F (Apr 18, 5:30 AM)8% (Apr 24, 2:30 PM)29.39 "Hg (Apr 23, 3:30 PM)
Average96 °F31%29.59 "Hg
* Reported Apr 16 7:30 AM — May 1 7:30 AM, Patna, Weather by CustomWeather, © 2016

Note: Actual official high and low records may vary slightly from our data, if they occured in-between our weather recording intervals... More about our weather records

Advertising

Patna Weather History for the Previous 24 Hours

Scroll right to see more
 ConditionsComfort  
Time TempWeatherWind HumidityBarometerVisibility
7:30 AM
Sun, May 1
84 °FHaze.2 mph40%29.62 "Hg2 mi
7:00 AM82 °FHaze.5 mph40%29.62 "Hg2 mi
6:30 AM81 °FHaze.5 mph42%29.62 "Hg1 mi
5:30 AM79 °FHaze.5 mph45%29.62 "Hg1 mi
9:00 PM
Sat, Apr 30
91 °FHaze.2 mph38%29.62 "Hg2 mi
8:00 PM97 °FPassing clouds.No wind28%29.59 "Hg2 mi
7:30 PM99 °FPassing clouds.2 mph29%29.56 "Hg2 mi
7:00 PM100 °FPassing clouds.2 mph27%29.56 "Hg2 mi
6:30 PM102 °FHaze.5 mph24%29.53 "Hg3 mi
6:00 PM102 °FHaze.5 mph24%29.53 "Hg3 mi
5:30 PM104 °FHaze.5 mph23%29.53 "Hg3 mi
5:00 PM106 °FScattered clouds.7 mph18%29.53 "Hg3 mi
4:30 PM106 °FScattered clouds.7 mph19%29.56 "Hg3 mi
4:00 PM109 °FScattered clouds.9 mph16%29.59 "Hg3 mi
3:30 PM109 °FScattered clouds.9 mph16%29.59 "Hg3 mi
3:00 PM111 °FScattered clouds.9 mph15%29.59 "Hg3 mi
2:30 PM111 °FScattered clouds.12 mph15%29.59 "Hg3 mi
2:00 PM111 °FScattered clouds.12 mph9%29.62 "Hg3 mi
1:30 PM109 °FScattered clouds.9 mph9%29.62 "Hg3 mi
1:00 PM109 °FScattered clouds.9 mph9%29.62 "Hg3 mi
12:30 PM109 °FScattered clouds.14 mph8%29.62 "Hg3 mi
12:00 PM109 °FScattered clouds.14 mph8%29.62 "Hg3 mi
11:30 AM108 °FScattered clouds.12 mph10%29.65 "Hg3 mi
11:00 AM104 °FScattered clouds.10 mph15%29.65 "Hg3 mi
10:30 AM102 °FScattered clouds.9 mph16%29.65 "Hg3 mi
10:00 AM99 °FScattered clouds.9 mph19%29.68 "Hg3 mi
9:30 AM97 °FScattered clouds.7 mph20%29.68 "Hg3 mi
Weather by CustomWeather, © 2016

See weather overviewHow to use our weather pages